This is the latest recevied weather packets stored in our database for station/object HP1CDW-10. If no packets are shown the sender has not sent any weather packets the latest 10 day(s).
| Time | Temp. | Humidity | Pressure | Rain* | Wind** | Luminosity | Snow |
|---|---|---|---|---|---|---|---|
| 1777376176 | 32.78° C | 48% | 1004.3 hPa | - | - | - | - |
| 1777375570 | 33.89° C | 46% | 1004.2 hPa | - | - | - | - |
| 1777374965 | 33.33° C | 46% | 1004 hPa | - | - | - | - |
| 1777374361 | 33.89° C | 46% | 1004.1 hPa | - | - | - | - |
| 1777373756 | 33.33° C | 47% | 1004 hPa | - | - | - | - |
| 1777373151 | 33.89° C | 45% | 1003.9 hPa | - | - | - | - |
| 1777372546 | 33.33° C | 46% | 1004 hPa | - | - | - | - |
| 1777371941 | 33.89° C | 46% | 1003.9 hPa | - | - | - | - |
| 1777371337 | 33.33° C | 47% | 1003.9 hPa | - | - | - | - |
| 1777370732 | 32.78° C | 48% | 1003.7 hPa | - | - | - | - |
| 1777370127 | 33.33° C | 46% | 1003.5 hPa | - | - | - | - |
| 1777369522 | 33.89° C | 45% | 1003.4 hPa | - | - | - | - |
| 1777368917 | 33.33° C | 47% | 1003.3 hPa | - | - | - | - |
| 1777368313 | 33.33° C | 46% | 1003.2 hPa | - | - | - | - |
| 1777367708 | 33.89° C | 45% | 1003 hPa | - | - | - | - |
| 1777365288 | 34.44° C | 44% | 1002.8 hPa | - | - | - | - |
| 1777364684 | 34.44° C | 43% | 1003.1 hPa | - | - | - | - |
| 1777364079 | 35° C | 43% | 1003.3 hPa | - | - | - | - |
| 1777363474 | 35° C | 43% | 1003.5 hPa | - | - | - | - |
| 1777362869 | 34.44° C | 43% | 1003.7 hPa | - | - | - | - |
| 1777362264 | 35° C | 43% | 1003.6 hPa | - | - | - | - |
| 1777361660 | 35° C | 43% | 1003.6 hPa | - | - | - | - |
| 1777361055 | 35° C | 42% | 1003.7 hPa | - | - | - | - |
| 1777360450 | 35° C | 42% | 1003.7 hPa | - | - | - | - |
| 1777359845 | 35° C | 42% | 1003.9 hPa | - | - | - | - |
* Rain since midnight (hover to see other rain measurements)
** Current wind speed in m/s (hover to see current wind gust speed)